Elkins, WV

3:42 AM EST on February 08, 2016 (GMT -0500)
Elkins-Randolph County

Weather History for KEKN - January, 2014

Change the Weather History Date:

Sunday, January 26, 2014

  Actual Average Record
Temperature  
Mean Temperature 24 °F 29 °F  
Max Temperature 46 °F 39 °F 71 °F (1950)
Min Temperature 2 °F 20 °F -12 °F (1985)
Degree Days  
Heating Degree Days 41 36  
Month to date heating degree days 1046 936  
Since 1 July heating degree days 3256 3227  
Cooling Degree Days 0 0  
Month to date cooling degree days 0 0  
Year to date cooling degree days 0 0  
Moisture  
Dew Point 9 °F    
Average Humidity 62    
Maximum Humidity 76    
Minimum Humidity 47    
Precipitation  
Precipitation 0.01 in 0.11 in 1.30 in (1943)
Month to date precipitation 2.05 2.71  
Year to date precipitation 2.05 2.71  
Snow  
Snow 0.40 in - - ()
Month to date snowfall 23.1  
Since 1 September snowfall 39.0  
Snow Depth 9.00 in    
Sea Level Pressure  
Sea Level Pressure 29.79 in    
Wind  
Wind Speed 6 mph (SW)    
Max Wind Speed 20 mph    
Max Gust Speed 25 mph    
Visibility 8 miles    
Events Snow    
T = Trace of Precipitation, MM = Missing Value Source: NWS Daily Summary

Daily Weather History Graph

Daily Weather History Graph

Search for Another Location

Airport or City:

Trip Planner

Search our weather history database for the weather conditions in past years. The results will help you decide how hot, cold, wet, or windy it might be!

Date:

Astronomy

Jan. 26, 2014 Rise Set
Actual Time 7:30 AM EST 5:33 PM EST
Civil Twilight 7:02 AM EST 6:02 PM EST
Nautical Twilight 6:29 AM EST 6:34 PM EST
Astronomical Twilight 5:58 AM EST 7:06 PM EST
Moon 3:05 AM EST (1/26) 1:22 PM EST (1/26)
Length of Visible Light 11h 00m
Length of Day
10h 03m
Waning Crescent, 24% of the Moon is Illuminated
Jan 26
Waning Crescent
Jan 30
New
Feb 6
First Quarter
Feb 14
Full
Feb 22
Last Quarter

Hourly Weather History & Observations

Time (EST) Temp. Windchill Dew Point Humidity Pressure Visibility Wind Dir Wind Speed Gust Speed Precip Events Conditions
12:19 AM 14.0 °F -0.2 °F 3.9 °F 64% 29.73 in 6.0 mi NW 12.7 mph 18.4 mph 0.00 in   Haze
12:51 AM 14.0 °F -0.8 °F 3.9 °F 64% 29.84 in 4.0 mi WNW 13.8 mph 24.2 mph 0.00 in Snow Light Snow
1:08 AM 12.9 °F -0.9 °F 5.0 °F 71% 29.74 in 2.5 mi West 11.5 mph - 0.00 in Snow Light Snow
1:16 AM 12.9 °F 1.6 °F 5.0 °F 71% 29.74 in 3.0 mi WNW 8.1 mph - 0.00 in Snow Light Snow
1:27 AM 12.9 °F -0.9 °F 6.1 °F 74% 29.74 in 2.5 mi WNW 11.5 mph 19.6 mph 0.00 in Snow Light Snow
1:41 AM 12.9 °F -0.9 °F 6.1 °F 74% 29.74 in 3.0 mi West 11.5 mph - 0.00 in Snow Light Snow
1:51 AM 12.9 °F 0.7 °F 5.0 °F 71% 29.85 in 4.0 mi West 9.2 mph - 0.00 in Snow Light Snow
2:51 AM 12.0 °F -3.4 °F 3.9 °F 70% 29.88 in 5.0 mi West 13.8 mph 23.0 mph 0.00 in Snow Light Snow
3:51 AM 10.9 °F -1.8 °F 1.9 °F 67% 29.93 in 6.0 mi West 9.2 mph 21.9 mph 0.00 in   Overcast
4:43 AM 9.0 °F 0.6 °F -0.0 °F 67% 29.82 in 8.0 mi Variable 4.6 mph - 0.00 in   Partly Cloudy
4:51 AM 9.0 °F 2.4 °F -0.0 °F 67% 29.93 in 8.0 mi SSW 3.5 mph - 0.00 in   Partly Cloudy
5:51 AM 3.0 °F -4.4 °F -5.1 °F 69% 29.92 in 10.0 mi SSE 3.5 mph - N/A   Clear
6:51 AM 8.1 °F -0.5 °F -2.0 °F 64% 29.92 in 10.0 mi South 4.6 mph - N/A   Clear
7:51 AM 7.0 °F -3.3 °F -5.1 °F 58% 29.89 in 10.0 mi South 5.8 mph - N/A   Clear
8:51 AM 5.0 °F - -2.9 °F 70% 29.87 in 10.0 mi Calm Calm - N/A   Clear
9:51 AM 12.9 °F 5.2 °F -4.0 °F 47% 29.84 in 10.0 mi South 4.6 mph - N/A   Clear
10:51 AM 18.0 °F - -0.9 °F 44% 29.82 in 10.0 mi Calm Calm - N/A   Overcast
11:48 AM 19.4 °F - -0.4 °F 42% 29.71 in 7.0 mi Calm Calm - N/A   Overcast
11:51 AM 19.9 °F 14.9 °F 1.0 °F 44% 29.82 in 5.0 mi Variable 3.5 mph - 0.00 in Snow Light Snow
12:22 PM 23.0 °F 18.4 °F 12.0 °F 63% 29.69 in 9.0 mi NNE 3.5 mph - 0.01 in Snow Light Snow
12:51 PM 24.1 °F - 12.9 °F 62% 29.78 in 10.0 mi Calm Calm - 0.01 in   Overcast
1:51 PM 27.0 °F 20.5 °F 16.0 °F 63% 29.75 in 10.0 mi SE 5.8 mph - 0.00 in Snow Light Snow
2:51 PM 34.0 °F 25.0 °F 17.1 °F 50% 29.70 in 10.0 mi South 12.7 mph 20.7 mph 0.00 in   Overcast
3:51 PM 37.9 °F 30.0 °F 19.9 °F 48% 29.72 in 10.0 mi SW 12.7 mph 20.7 mph N/A   Overcast
4:51 PM 39.9 °F 35.1 °F 21.0 °F 47% 29.74 in 10.0 mi SW 6.9 mph - N/A   Overcast
5:51 PM 39.9 °F 35.1 °F 21.0 °F 47% 29.73 in 10.0 mi SSW 6.9 mph - N/A   Overcast
6:51 PM 36.0 °F 32.1 °F 21.9 °F 57% 29.73 in 10.0 mi SE 4.6 mph - N/A   Overcast
7:51 PM 32.0 °F - 23.0 °F 69% 29.75 in 10.0 mi Calm Calm - N/A   Overcast
8:51 PM 34.0 °F 28.8 °F 24.1 °F 67% 29.75 in 10.0 mi SE 5.8 mph - N/A   Overcast
9:51 PM 39.0 °F 36.8 °F 23.0 °F 53% 29.73 in 10.0 mi Variable 3.5 mph - N/A   Overcast
10:51 PM 43.0 °F 37.7 °F 25.0 °F 49% 29.70 in 10.0 mi SSW 9.2 mph - N/A   Overcast
11:51 PM 46.0 °F 41.4 °F 26.1 °F 46% 29.69 in 10.0 mi South 9.2 mph 21.9 mph N/A   Overcast